When you browse on this site, cookies collect data to enhance your experience and personalize the content and advertising you see.
Visit our Privacy Policy to learn more. By continuing to use the site, you agree to this use of cookies and data.
  • In Schweiz
  • Länderverzeichnis
  • Für 7 Tage
  • Wassertemperatur
  • Wetterkarte
  • Widgets
  • user-avatar
    Anmelden

    Stündliche Wetter Stafford

    Heute, 13 Dezember, Freitag

    Zeit Temperatur Niederschläge Wind Luftdruck Luftfeuchtigkeit
    00:00 +5°C° 0 mm 2 m/S 719 mmHg 96%
    01:00 +4°C° 0.8 mm 4 m/S 720 mmHg 95%
    02:00 +3°C° 0.8 mm 5 m/S 720 mmHg 94%
    03:00 +3°C° 0.8 mm 7 m/S 720 mmHg 93%
    04:00 +3°C° 1 mm 7 m/S 721 mmHg 91%
    05:00 +3°C° 1 mm 7 m/S 722 mmHg 89%
    06:00 +4°C° 0 mm 6 m/S 723 mmHg 87%
    07:00 +4°C° 0.2 mm 7 m/S 724 mmHg 87%
    08:00 +4°C° 0.2 mm 8 m/S 724 mmHg 86%
    09:00 +3°C° 0.2 mm 9 m/S 725 mmHg 86%
    10:00 +3°C° 0 mm 9 m/S 725 mmHg 84%
    11:00 +3°C° 0 mm 9 m/S 726 mmHg 82%
    12:00 +5°C° 0 mm 9 m/S 726 mmHg 77%
    13:00 +3°C° 0.1 mm 9 m/S 726 mmHg 80%
    14:00 +3°C° 0.1 mm 9 m/S 727 mmHg 82%
    15:00 +3°C° 0.1 mm 10 m/S 727 mmHg 85%
    16:00 +2°C° 0.1 mm 9 m/S 727 mmHg 84%
    17:00 +3°C° 0.1 mm 7 m/S 727 mmHg 83%
    18:00 +2°C° 0.1 mm 6 m/S 727 mmHg 82%
    19:00 +2°C° 0 mm 6 m/S 726 mmHg 82%
    20:00 +2°C° 0 mm 5 m/S 726 mmHg 82%
    21:00 +2°C° 0 mm 5 m/S 726 mmHg 83%
    22:00 +2°C° 0 mm 5 m/S 726 mmHg 84%
    23:00 +2°C° 0 mm 5 m/S 726 mmHg 86%

    Morgen, 14 Dezember, Samstag

    Zeit Temperatur Niederschläge Wind Luftdruck Luftfeuchtigkeit
    00:00 +1°C° 0 mm 5 m/S 726 mmHg 87%
    01:00 +1°C° 0.1 mm 6 m/S 727 mmHg 86%
    02:00 +2°C° 0.1 mm 7 m/S 727 mmHg 85%
    03:00 +2°C° 0.1 mm 7 m/S 728 mmHg 85%
    04:00 +2°C° 0 mm 7 m/S 728 mmHg 81%
    05:00 0°C° 0 mm 7 m/S 729 mmHg 77%
    06:00 0°C° 0 mm 7 m/S 730 mmHg 73%
    07:00 0°C° 0 mm 7 m/S 730 mmHg 73%
    08:00 +1°C° 0 mm 6 m/S 731 mmHg 73%
    09:00 +1°C° 0 mm 6 m/S 731 mmHg 73%
    10:00 0°C° 0.2 mm 7 m/S 732 mmHg 72%
    11:00 +1°C° 0.2 mm 8 m/S 732 mmHg 71%
    12:00 +1°C° 0.2 mm 9 m/S 732 mmHg 71%
    13:00 +1°C° 0 mm 8 m/S 733 mmHg 70%
    14:00 +2°C° 0 mm 6 m/S 733 mmHg 70%
    15:00 +1°C° 0 mm 5 m/S 733 mmHg 69%
    16:00 +1°C° 0 mm 5 m/S 733 mmHg 72%
    17:00 +1°C° 0 mm 4 m/S 732 mmHg 75%
    18:00 0°C° 0 mm 4 m/S 731 mmHg 78%
    19:00 +1°C° 1.6 mm 5 m/S 730 mmHg 83%
    20:00 +2°C° 1.6 mm 5 m/S 730 mmHg 88%
    21:00 +2°C° 1.6 mm 6 m/S 729 mmHg 93%
    22:00 +2°C° 0.3 mm 6 m/S 729 mmHg 92%
    23:00 0°C° 0.3 mm 7 m/S 729 mmHg 90%

    übermorgen, 15 Dezember, Sonntag

    Zeit Temperatur Niederschläge Wind Luftdruck Luftfeuchtigkeit
    00:00 0°C° 0.3 mm 7 m/S 728 mmHg 89%
    01:00 0°C° 0.5 mm 7 m/S 729 mmHg 88%
    02:00 0°C° 0.5 mm 7 m/S 730 mmHg 88%
    03:00 +1°C° 0.5 mm 6 m/S 730 mmHg 87%
    04:00 -1°C° 0 mm 6 m/S 731 mmHg 88%
    05:00 0°C° 0 mm 5 m/S 733 mmHg 88%
    06:00 -1°C° 0 mm 4 m/S 734 mmHg 89%
    07:00 -1°C° 0 mm 5 m/S 735 mmHg 86%
    08:00 -1°C° 0 mm 5 m/S 735 mmHg 84%
    09:00 -1°C° 0 mm 5 m/S 736 mmHg 81%
    10:00 +1°C° 0 mm 6 m/S 736 mmHg 82%
    11:00 +2°C° 0 mm 7 m/S 736 mmHg 82%
    12:00 +2°C° 0 mm 8 m/S 736 mmHg 82%
    13:00 +3°C° 0.3 mm 7 m/S 736 mmHg 82%
    14:00 +3°C° 0.3 mm 7 m/S 736 mmHg 81%
    15:00 +3°C° 0.3 mm 7 m/S 736 mmHg 80%
    16:00 +3°C° 0 mm 7 m/S 736 mmHg 80%
    17:00 +2°C° 0 mm 6 m/S 736 mmHg 81%
    18:00 +2°C° 0 mm 6 m/S 736 mmHg 81%
    19:00 +2°C° 0.2 mm 6 m/S 736 mmHg 82%
    20:00 +2°C° 0.2 mm 6 m/S 737 mmHg 84%
    21:00 +2°C° 0.2 mm 6 m/S 737 mmHg 85%
    22:00 +2°C° 0.4 mm 6 m/S 736 mmHg 84%
    23:00 +2°C° 0.4 mm 7 m/S 736 mmHg 82%

    16 Dezember, Montag

    Zeit Temperatur Niederschläge Wind Luftdruck Luftfeuchtigkeit
    00:00 +2°C° 0.4 mm 7 m/S 736 mmHg 81%
    01:00 +2°C° 0 mm 7 m/S 736 mmHg 81%
    02:00 +2°C° 0 mm 7 m/S 736 mmHg 81%
    03:00 +2°C° 0 mm 7 m/S 736 mmHg 81%
    04:00 +2°C° 0 mm 7 m/S 737 mmHg 81%
    05:00 +2°C° 0 mm 6 m/S 737 mmHg 82%
    06:00 +2°C° 0 mm 6 m/S 737 mmHg 83%
    07:00 +1°C° 0 mm 6 m/S 738 mmHg 84%
    08:00 +1°C° 0 mm 5 m/S 739 mmHg 85%
    09:00 +1°C° 0 mm 5 m/S 739 mmHg 86%
    10:00 +2°C° 0 mm 5 m/S 740 mmHg 84%
    11:00 +4°C° 0 mm 4 m/S 740 mmHg 82%
    12:00 +4°C° 0 mm 4 m/S 740 mmHg 80%
    13:00 +4°C° 0 mm 3 m/S 740 mmHg 81%
    14:00 +5°C° 0 mm 2 m/S 740 mmHg 83%
    15:00 +5°C° 0 mm 2 m/S 740 mmHg 84%
    16:00 +4°C° 0 mm 2 m/S 740 mmHg 87%
    17:00 +4°C° 0 mm 2 m/S 740 mmHg 89%
    18:00 +3°C° 0 mm 2 m/S 740 mmHg 91%
    19:00 +3°C° 0 mm 2 m/S 741 mmHg 91%
    20:00 +4°C° 0 mm 1 m/S 741 mmHg 90%
    21:00 +4°C° 0 mm 1 m/S 741 mmHg 90%
    22:00 +4°C° 0 mm 1 m/S 741 mmHg 90%
    23:00 +3°C° 0 mm 0 m/S 741 mmHg 90%

    17 Dezember, Dienstag

    Zeit Temperatur Niederschläge Wind Luftdruck Luftfeuchtigkeit
    00:00 +3°C° 0 mm 0 m/S 741 mmHg 90%
    01:00 +3°C° 0 mm 0 m/S 741 mmHg 89%
    02:00 +3°C° 0 mm 0 m/S 741 mmHg 89%
    03:00 +2°C° 0 mm 0 m/S 741 mmHg 89%
    04:00 +2°C° 0 mm 0 m/S 741 mmHg 89%
    05:00 +2°C° 0 mm 0 m/S 740 mmHg 89%
    06:00 +2°C° 0 mm 0 m/S 740 mmHg 89%
    07:00 +3°C° 0 mm 1 m/S 741 mmHg 89%
    08:00 +3°C° 0 mm 1 m/S 741 mmHg 88%
    09:00 +3°C° 0 mm 1 m/S 741 mmHg 88%
    10:00 +4°C° 0 mm 1 m/S 742 mmHg 85%
    11:00 +4°C° 0 mm 1 m/S 742 mmHg 83%
    12:00 +5°C° 0 mm 1 m/S 742 mmHg 81%
    13:00 +4°C° 0 mm 2 m/S 743 mmHg 83%
    14:00 +4°C° 0 mm 2 m/S 743 mmHg 85%
    15:00 +3°C° 0 mm 2 m/S 743 mmHg 87%
    16:00 +3°C° 0 mm 2 m/S 743 mmHg 88%
    17:00 +2°C° 0 mm 2 m/S 744 mmHg 89%
    18:00 +2°C° 0 mm 2 m/S 744 mmHg 90%
    19:00 +2°C° 0 mm 2 m/S 744 mmHg 90%
    20:00 0°C° 0 mm 3 m/S 745 mmHg 90%
    21:00 0°C° 0 mm 3 m/S 745 mmHg 90%
    22:00 0°C° 0 mm 3 m/S 746 mmHg 90%
    23:00 0°C° 0 mm 3 m/S 746 mmHg 91%

    18 Dezember, Mittwoch

    Zeit Temperatur Niederschläge Wind Luftdruck Luftfeuchtigkeit
    00:00 0°C° 0 mm 3 m/S 746 mmHg 91%
    01:00 +1°C° 0 mm 2 m/S 746 mmHg 91%
    02:00 +1°C° 0 mm 2 m/S 746 mmHg 91%
    03:00 +1°C° 0 mm 2 m/S 746 mmHg 91%
    04:00 +1°C° 0 mm 2 m/S 747 mmHg 92%
    05:00 +1°C° 0 mm 2 m/S 747 mmHg 93%
    06:00 +1°C° 0 mm 2 m/S 747 mmHg 93%
    07:00 +1°C° 0 mm 2 m/S 747 mmHg 94%
    08:00 +1°C° 0 mm 2 m/S 747 mmHg 94%
    09:00 +1°C° 0 mm 2 m/S 748 mmHg 95%
    10:00 +2°C° 0 mm 2 m/S 748 mmHg 92%
    11:00 +3°C° 0 mm 2 m/S 748 mmHg 89%
    12:00 +4°C° 0 mm 2 m/S 748 mmHg 87%
    13:00 +4°C° 0 mm 2 m/S 748 mmHg 88%
    14:00 +3°C° 0 mm 2 m/S 747 mmHg 89%
    15:00 +3°C° 0 mm 2 m/S 747 mmHg 90%
    16:00 +2°C° 0 mm 3 m/S 747 mmHg 91%
    17:00 +1°C° 0 mm 3 m/S 747 mmHg 92%
    18:00 +1°C° 0 mm 3 m/S 747 mmHg 93%
    19:00 +1°C° 0 mm 3 m/S 746 mmHg 93%
    20:00 0°C° 0 mm 4 m/S 746 mmHg 93%
    21:00 0°C° 0 mm 4 m/S 746 mmHg 94%
    22:00 0°C° 0 mm 4 m/S 746 mmHg 93%
    23:00 0°C° 0 mm 5 m/S 745 mmHg 93%
    Mehr zeigen